Weather in Rakitino

Russia / Novgorod Oblast     58°53′55″N   34°10′11″E
temp.,
°C
wind,
m/s
gust,
m/s
humid.,
%
clouds,
%
prec.,
mm/h
press.,
hPa
HPBL,
m
3 march, wed
wed300:00−5nw411900 0.0 1015398
03:00−5wnw311954 0.0 1016366
06:00−2wnw4109397 0.1 1014788
09:00−1wnw4108998 0.3 1014858
12:00−1w5987100 0.1 1012784
15:000w51087100 0.1 1010844
18:000w61389100 0.1 10071115
21:000w51296100 0.9 1003929
4 march, thu
thu400:000wnw61297100 2.6 999990
03:00−2nw6128399 3.4 9991037
06:00−5nw5129153 0.1 999752
09:00−6wnw4109076 0.1 1001585
12:00−4nw478699 0.0 1001610
15:00−4nw358597 0.1 1002665
18:00−5wnw2493100 0.1 1001310
21:00−7wnw2696100 0.4 1003227
5 march, fri
fri500:00−9wnw2697100 0.1 1003199
03:00−8wnw279596 0.3 1004307
06:00−10nw399499 0.3 1005347
09:00−10nw389292 0.3 1007459
12:00−7nw368289 0.1 1008856
15:00−6nw468295 0.3 1010934
18:00−9nnw389099 0.2 1011585
21:00−14nnw239468 0.2 101472
6 march, sat
sat600:00−14wnw239640 0.0 101557
03:00−15wnw259340 0.0 1016114
06:00−14w279746 0.0 1016151
09:00−11w379357 0.0 1016332
12:00−7w368491 0.0 1015690
15:00−6wsw467895 0.1 1013949
18:00−7sw41087100 0.0 1009798
21:00−6ssw61492100 0.5 10041103
7 march, sun
sun700:00−5sw71592100 1.2 9961237
03:00−4sw71593100 3.0 9901157
06:00−3wsw51196100 2.8 988889
09:00−10wnw5156990 6.4 9901542
12:00−8w5107860 0.1 9901546
15:00−8wnw478880 0.9 990945
18:00−10nw3788100 0.3 991391
21:00−13nw3109370 0.3 994313